User: anonymous   Login
Location: Charbonni�res
(45.9952°N, 2.9982°E)
Time: 08:14:42
(UTC+00:00)
Language:

Cosmos 1782 - Orbit

View from above orbital plane
View from above orbital plane
View from above satellite
View from above satellite

Ground track
Ground track

The orbit data is extracted from the following two-line orbital elements,

1 16986U 86074A   21065.93171675  .00000261  00000-0  15209-4 0  9998
2 16986  82.5032 238.4900 0012072  29.3422 330.8481 15.07462726854310
Epoch (UTC): 06 March 2021 22:21:40
Eccentricity: 0.0012072
inclination: 82.5032°
perigee height: 535 km
apogee height: 552 km
right ascension of ascending node: 238.4900°
argument of perigee: 29.3422°
revolutions per day: 15.07462726
mean anomaly at epoch: 330.8481°
orbit number at epoch: 85431

The dashed part of the orbit path shows where the satellite is in the earth's shadow,  

DLR